#timestamp,LO_Frequency,Hit,StdDev 
1634450415.7,286046999.8,N
1634450435.6,286047001.6,N
1634450455.4,286047002.5,N
1634450475.2,286047003.9,N
1634450495.1,286047003.2,N
1634450496.0,286047003.2,N
1634450515.8,286047003.5,N
1634450535.7,286047003.6,N
1634450555.5,286047001.5,N
1634450575.3,286047001.5,N
1634450595.2,286047002.6,N
1634450615.0,286047001.5,N
1634450615.9,286047001.5,N
1634450635.8,286047002.6,N
1634450655.6,286047001.4,N
1634450675.4,286047001.5,N
1634450695.3,286047004.2,N
1634450715.1,286047001.6,N
1634450735.8,286047002.3,N
1634450755.7,286047001.9,N
1634450775.5,286047004.0,N
1634450795.4,286047003.2,N
1634450815.2,286047001.6,N
1634450835.0,286047002.4,N
1634450835.9,286047002.4,N
1634450855.8,286047001.9,N
1634450875.6,286047001.7,N
1634450895.4,286047001.1,N
1634450915.3,286047000.3,N
1634450935.1,286046998.3,N
1634450955.9,286046998.8,N
1634450975.7,286047000.3,N
1634450995.5,286047002.6,N
1634451015.4,286047001.8,N
1634451035.2,286046999.9,N
1634451055.0,286046998.3,N
1634451056.0,286046998.3,N
1634451075.8,286046998.8,N
1634451095.6,286047000.7,N
1634451115.5,286047000.3,N
1634451135.3,286046998.2,N
1634451155.1,286047001.0,N
1634451175.9,286047002.7,N
1634451195.7,286047001.8,N
1634451215.6,286047001.4,N
1634451235.4,286047001.6,N
1634451255.2,286047001.9,N
1634451275.1,286047001.8,N
1634451276.0,286047001.8,N
1634451295.8,286047003.7,N
1634451315.6,286047004.8,N
1634451335.5,286047007.4,Y
1634451355.3,286047005.6,P
1634451375.2,286047003.0,N
1634451395.0,286047005.6,P
1634451395.9,286047005.6,N
1634451415.7,286047004.6,N
1634451435.6,286047004.7,N
1634451455.4,286047003.2,N
1634451475.3,286047001.7,N
1634451495.1,286047005.6,Y
1634451515.8,286046998.3,P
1634451535.7,286046999.7,N
1634451555.5,286046999.1,N
1634451575.4,286046999.5,N
1634451595.2,286046995.6,N
1634451615.0,286046997.3,N
1634451615.9,286046997.3,N
1634451635.8,286046997.6,N
1634451655.6,286046997.5,N
1634451675.4,286046996.5,N
1634451695.3,286046996.8,N
1634451715.1,286046996.6,N
1634451735.9,286046996.8,N
1634451755.7,286046994.9,N
1634451775.5,286046993.4,Y
1634451795.4,286046996.7,P
1634451815.2,286046999.4,N
1634451835.0,286046997.0,N
1634451836.0,286046997.0,N
1634451855.8,286046999.0,N
1634451875.6,286046998.3,N
1634451895.5,286046998.8,N
1634451915.3,286046998.4,N
1634451935.1,286047001.2,N
1634451955.9,286046999.6,N
1634451975.7,286046998.0,N
1634451995.6,286046996.4,N
1634452015.4,286046996.4,N
1634452035.2,286046995.3,Y
1634452055.1,286046998.4,P
1634452056.0,286046998.4,P
1634452075.8,286046999.3,P
1634452095.6,286046997.5,Y
1634452115.5,286046999.5,P
1634452135.3,286046998.9,N
1634452155.2,286047000.8,N
1634452175.9,286047001.0,N
1634452195.7,286046999.9,N
1634452215.6,286047002.8,Y
1634452235.4,286047002.6,P
1634452255.2,286046999.7,N
1634452275.1,286047002.7,N
1634452276.0,286047002.7,N
1634452295.8,286047000.2,N
1634452315.7,286047001.9,N
1634452335.5,286047002.4,N
1634452355.3,286047001.0,N
1634452375.2,286047002.6,N
1634452395.0,286047002.7,N
1634452395.9,286047002.7,N
1634452415.8,286047003.2,N
1634452435.6,286047003.7,Y
1634452455.4,286047000.4,P
1634452475.3,286047000.2,N
1634452495.1,286047000.1,N
1634452515.8,286047001.0,N
1634452535.7,286047000.2,N
1634452555.5,286046999.9,N
1634452575.4,286047000.9,N
1634452595.2,286047000.0,N
1634452615.0,286047001.9,Y
1634452615.9,286047001.9,P
1634452635.8,286047002.0,N
1634452655.6,286047002.2,P
1634452675.5,286047003.9,Y
1634452695.3,286046999.7,P
1634452715.1,286047002.8,N
1634452735.9,286047001.6,N
1634452755.7,286046999.9,N
1634452775.5,286047001.1,N
1634452795.4,286046996.9,N
1634452815.2,286046996.5,N
1634452835.1,286046999.6,N
1634452836.0,286046999.6,N
1634452855.8,286046995.4,N
1634452875.6,286046995.8,N
1634452895.5,286046997.8,N
1634452915.3,286046997.9,N
1634452935.1,286046996.3,N
1634452955.9,286046995.8,N
1634452975.7,286046997.1,N
1634452995.6,286046998.3,N
1634453015.4,286046998.2,N
1634453035.2,286046998.3,N
1634453055.1,286046998.7,N
1634453056.0,286046998.7,N
1634453075.8,286046998.9,N
1634453095.6,286047000.8,N
1634453115.5,286047001.2,N
1634453135.3,286047000.8,N
1634453155.2,286047000.8,N
1634453175.0,286047000.6,N
1634453175.9,286047000.6,N
1634453195.7,286046999.0,N
1634453215.6,286047000.4,N
1634453235.4,286046999.0,N
1634453255.3,286047000.8,N
1634453275.1,286047000.7,N
1634453276.0,286047000.7,N
1634453295.8,286047000.3,N
1634453315.7,286047001.2,N
1634453335.5,286046998.3,N
1634453355.4,286046998.6,N
1634453375.2,286047000.0,N
1634453395.0,286047000.4,N
1634453395.9,286047000.4,N
1634453415.8,286047000.1,N
1634453435.6,286047000.6,N
1634453455.4,286047000.8,N
1634453475.3,286047000.9,N
1634453495.1,286047002.7,N
1634453515.9,286047001.2,N
1634453535.7,286047000.7,N
1634453555.5,286047000.9,N
1634453575.4,286046998.5,N
1634453595.2,286046998.9,N
1634453615.1,286046998.8,N
1634453616.0,286046998.8,N
1634453635.8,286046998.9,N
1634453655.6,286046999.5,N
1634453675.5,286046998.8,N
1634453695.3,286046998.1,N
1634453715.1,286047000.7,N
1634453735.9,286047000.4,N
1634453755.7,286046999.9,N
1634453775.6,286047000.4,N
1634453795.4,286047002.5,N
1634453815.2,286047002.8,N
1634453835.1,286047000.4,N
1634453836.0,286047000.4,N
1634453855.8,286047002.4,N
1634453875.6,286047000.9,N
1634453895.5,286047001.2,N
1634453915.3,286046998.2,N
1634453935.2,286046998.4,N
1634453955.9,286046996.9,N
1634453975.7,286046997.2,N
1634453995.6,286046995.0,Y
